Weather History for KPAH - August, 2013

Change the Weather History Date:

Saturday, August 31, 2013

  Actual Average Record
Temperature  
Mean Temperature 87 °F 76 °F  
Max Temperature 96 °F 87 °F 100 °F (1953)
Min Temperature 77 °F 64 °F 46 °F (1946)
Degree Days  
Heating Degree Days 0 0  
Month to date heating degree days 0 0  
Since 1 June heating degree days 0 5  
Since 1 July heating degree days 0 1  
Cooling Degree Days 22 11  
Month to date cooling degree days 356 390  
Year to date cooling degree days 1174 1313  
Since 1 June cooling degree days 996 1141  
Growing Degree Days 36 (Base 50)    
Moisture  
Dew Point 74 °F    
Average Humidity 68    
Maximum Humidity 88    
Minimum Humidity 48    
Precipitation  
Precipitation 0.00 in 0.09 in 2.94 in (1965)
Month to date precipitation 3.71 2.76  
Year to date precipitation 40.77 32.48  
Snow  
Snow 0.00 in 0.00 in 0.00 in (2002)
Month to date snowfall 0.0 0.0  
Since 1 June snowfall 0.0 0.0  
Since 1 July snowfall 0.0 0.0  
Snow Depth 0.00 in    
Sea Level Pressure  
Sea Level Pressure 29.83 in    
Wind  
Wind Speed 5 mph (SW)    
Max Wind Speed 12 mph    
Max Gust Speed 15 mph    
Visibility 9 miles    
Events Thunderstorm    
T = Trace of Precipitation, MM = Missing Value Source: NWS Daily Summary

Daily Weather History Graph

Daily Weather History Graph

Search for Another Location

Airport or City:

Trip Planner

Search our weather history database for the weather conditions in past years. The results will help you decide how hot, cold, wet, or windy it might be!

Date:

Astronomy

Aug. 31, 2013 Rise Set
Actual Time 6:25 AM CDT 7:24 PM CDT
Civil Twilight 5:58 AM CDT 7:51 PM CDT
Nautical Twilight 5:26 AM CDT 8:22 PM CDT
Astronomical Twilight 4:54 AM CDT 8:55 PM CDT
Moon 1:57 AM CDT (8/31) 4:19 PM CDT (8/31)
Length of Visible Light 13h 52m
Length of Day
12h 59m
Waning Crescent, 21% of the Moon is Illuminated
Aug 31
Waning Crescent
Sep 5
New
Sep 12
First Quarter
Sep 19
Full
Sep 26
Last Quarter

Hourly Weather History & Observations

Time (CDT) Temp. Heat Index Dew Point Humidity Pressure Visibility Wind Dir Wind Speed Gust Speed Precip Events Conditions
12:53 AM 79.0 °F - 73.9 °F 84% 29.86 in 9.0 mi Calm Calm - N/A   Clear
1:53 AM 77.0 °F - 73.0 °F 88% 29.85 in 8.0 mi Calm Calm - N/A   Partly Cloudy
2:53 AM 79.0 °F - 73.9 °F 84% 29.85 in 8.0 mi SW 3.5 mph - N/A   Overcast
3:53 AM 79.0 °F - 73.9 °F 84% 29.85 in 8.0 mi SW 5.8 mph - N/A   Overcast
4:53 AM 79.0 °F - 73.0 °F 82% 29.86 in 9.0 mi SW 4.6 mph - N/A   Overcast
5:00 AM 78.8 °F - 73.4 °F 83% 29.87 in 9.0 mi SW 4.6 mph - N/A Thunderstorm Overcast
5:50 AM 78.8 °F - 73.4 °F 83% 29.89 in 9.0 mi SSE 4.6 mph - N/A   Mostly Cloudy
5:53 AM 78.1 °F - 73.0 °F 84% 29.87 in 9.0 mi South 4.6 mph - N/A   Mostly Cloudy
6:53 AM 79.0 °F - 72.0 °F 79% 29.86 in 8.0 mi SSW 4.6 mph - N/A   Clear
7:53 AM 80.1 °F 83.8 °F 72.0 °F 76% 29.87 in 8.0 mi Variable 3.5 mph - N/A   Clear
8:53 AM 82.9 °F 88.8 °F 73.0 °F 72% 29.87 in 9.0 mi SW 6.9 mph - N/A   Clear
9:53 AM 88.0 °F 96.5 °F 73.9 °F 63% 29.88 in 9.0 mi WSW 6.9 mph - N/A   Clear
10:53 AM 91.0 °F 100.4 °F 73.9 °F 57% 29.88 in 9.0 mi WSW 6.9 mph - N/A   Scattered Clouds
11:53 AM 91.9 °F 103.2 °F 75.0 °F 58% 29.86 in 8.0 mi SW 6.9 mph - N/A   Clear
12:53 PM 93.0 °F 104.6 °F 75.0 °F 56% 29.85 in 10.0 mi SW 10.4 mph - N/A   Clear
1:53 PM 96.1 °F 107.1 °F 73.9 °F 49% 29.84 in 10.0 mi Variable 4.6 mph - N/A   Clear
2:53 PM 95.0 °F 108.2 °F 75.9 °F 54% 29.82 in 10.0 mi SW 9.2 mph - N/A   Clear
3:53 PM 93.9 °F 104.0 °F 73.9 °F 52% 29.80 in 9.0 mi SW 5.8 mph - N/A   Clear
4:53 PM 93.0 °F 104.6 °F 75.0 °F 56% 29.78 in 9.0 mi SW 9.2 mph - N/A   Clear
5:53 PM 91.0 °F 101.6 °F 75.0 °F 59% 29.77 in 9.0 mi SSW 4.6 mph - N/A   Clear
6:53 PM 88.0 °F 98.5 °F 75.9 °F 67% 29.77 in 9.0 mi Calm Calm - N/A   Clear
7:53 PM 86.0 °F 96.0 °F 75.9 °F 72% 29.78 in 10.0 mi SSW 4.6 mph - N/A   Clear
8:53 PM 84.9 °F 93.3 °F 75.0 °F 72% 29.79 in 10.0 mi SSW 4.6 mph - N/A   Clear
9:53 PM 84.0 °F 91.9 °F 75.0 °F 74% 29.79 in 9.0 mi SSW 5.8 mph - N/A   Clear
10:53 PM 82.9 °F 90.2 °F 75.0 °F 77% 29.79 in 8.0 mi SW 4.6 mph - N/A   Clear
11:53 PM 82.0 °F 87.9 °F 73.9 °F 76% 29.79 in 8.0 mi SW 6.9 mph - N/A   Scattered Clouds